Temperature
20 20 20 20 18 17 18 19 19 19 18 18 18 18 17 17 17 17 17 17 17 17 17 16 16 16 16 16 16 16 16 16 16 16 16 16 16 16 16 16 16 17 17 17 17 17 17 17 17
20 20 20 20 17 17 18 19 19 19 19 18 18 18 17 17 17 17 17 17 17 17 17 16 16 16 16 16 16 16 16 16 16 16 16 16 16 16 16 16 16 16 17 16 17 17 17 17 17
20 20 20 17 17 18 19 19 18 19 19 19 18 18 17 17 17 17 17 17 17 17 17 16 16 16 16 16 16 16 16 16 16 16 16 16 16 16 16 16 16 16 16 16 16 16 17 17 17
20 20 20 17 18 18 19 19 19 19 19 19 18 17 17 17 17 17 17 17 17 17 17 16 16 16 16 16 16 16 16 16 16 16 16 16 16 16 16 16 16 16 16 16 16 16 16 17 17
21 20 17 18 19 19 19 19 19 19 18 18 18 17 17 17 17 17 17 17 17 17 17 16 16 16 16 16 16 16 16 16 16 16 16 16 16 16 16 16 16 16 16 16 16 16 16 16 16
21 18 17 18 19 19 19 19 19 18 18 18 18 17 17 17 17 17 17 17 17 17 17 16 16 16 16 16 16 15 15 16 16 16 15 15 15 16 16 16 16 16 16 16 16 16 16 16 16
20 17 18 18 18 19 20 20 19 18 18 18 18 17 17 17 17 17 17 17 17 17 17 16 16 16 16 16 16 15 15 16 16 16 15 15 15 15 16 16 16 16 16 16 16 16 16 16 16
21 17 18 18 19 19 20 19 19 19 18 18 18 17 17 17 17 17 17 17 17 17 17 16 16 16 16 16 16 16 16 16 15 16 15 15 15 15 15 15 16 16 16 16 16 16 16 16 16
21 17 18 19 19 19 20 19 19 19 18 18 18 18 18 18 17 17 17 17 17 17 17 16 16 16 16 16 16 16 16 16 16 15 15 15 15 15 15 15 15 16 16 16 16 16 16 16 16
20 17 19 20 19 19 19 19 19 19 18 18 18 18 18 18 17 17 17 17 17 17 17 17 16 16 16 16 16 16 16 16 16 16 16 15 15 15 15 15 15 15 15 15 16 16 16 16 16
20 19 19 20 20 20 20 19 19 19 18 18 18 18 18 18 17 17 17 17 17 17 17 17 16 16 16 16 16 16 16 16 16 16 16 16 16 16 16 16 15 15 15 15 15 16 16 16 16
20 20 20 20 21 21 20 19 19 18 19 19 19 18 18 18 18 18 18 17 17 17 17 17 17 16 16 16 16 16 16 16 16 16 16 16 16 16 16 16 15 15 15 15 15 15 15 15 15
20 20 20 21 20 20 20 19 19 18 19 19 19 18 18 18 18 18 18 18 17 17 17 17 17 16 16 16 16 16 16 16 16 16 16 16 16 16 16 16 15 15 15 15 15 15 15 15 15
20 20 20 20 20 20 19 19 19 19 19 19 19 18 18 18 18 18 18 18 17 17 17 17 17 17 16 16 16 16 16 16 16 16 16 16 16 16 16 16 16 15 15 15 15 15 15 15 15
21 19 19 20 20 20 20 18 18 19 19 19 18 18 18 18 18 18 18 18 18 18 17 17 17 17 16 16 16 16 16 16 16 16 16 16 16 16 16 16 15 15 15 15 15 15 15 15 15
20 19 18 19 19 20 19 18 18 19 19 18 18 18 18 18 18 18 18 18 18 18 17 17 17 17 16 16 16 16 16 16 16 16 16 16 16 16 16 16 15 15 15 15 15 15 15 15 15
18 18 18 19 19 19 19 18 18 18 18 18 18 18 18 18 18 18 18 18 18 17 17 17 17 17 16 16 16 16 16 16 16 16 16 16 16 16 16 15 15 15 15 15 15 15 15 15 14
19 18 19 19 19 19 18 17 17 18 17 17 17 17 17 18 18 18 18 18 18 17 17 17 17 17 16 16 16 16 16 16 16 16 16 15 15 15 15 15 15 15 15 15 15 15 15 15 14
19 19 18 19 19 18 18 17 17 17 17 17 17 17 17 18 18 18 18 18 18 17 17 17 17 16 16 16 16 16 16 16 16 15 15 15 15 15 15 15 15 15 15 15 15 15 15 14 14
19 18 18 18 19 18 17 17 17 17 17 17 17 17 17 18 18 18 18 18 17 17 17 17 17 16 16 16 16 16 16 16 16 15 15 15 15 15 15 15 15 15 15 15 15 15 14 14 14
19 19 18 18 18 18 18 17 17 17 17 17 17 17 17 18 18 17 17 18 17 17 17 17 17 16 16 16 16 16 16 16 16 15 15 15 15 15 15 15 15 15 15 15 15 14 14 14 14
19 19 19 19 17 16 17 16 16 16 16 16 17 17 17 17 17 18 17 17 17 17 17 17 17 16 16 16 16 16 16 16 16 15 15 15 15 15 15 15 15 15 15 15 14 14 14 14 14
19 19 18 18 17 16 16 16 16 15 16 16 16 17 17 18 18 18 18 18 17 17 17 17 17 16 16 16 16 16 16 16 16 15 15 15 15 15 15 15 15 15 15 15 14 14 14 14 14
19 18 17 15 15 16 16 16 16 15 16 17 17 17 18 18 18 18 18 18 17 17 17 17 17 16 16 16 16 16 16 16 16 16 15 15 15 15 15 15 15 15 15 15 14 14 14 14 14
18 17 16 16 15 16 16 16 16 17 17 17 17 17 18 18 18 18 18 18 17 17 17 17 17 17 16 16 16 16 16 16 16 16 15 15 15 15 15 15 15 15 15 15 14 14 14 14 14
18 17 16 16 16 15 16 16 17 17 17 18 18 18 18 18 18 18 18 18 18 17 17 17 17 17 16 16 16 16 16 16 16 16 16 15 15 15 15 15 15 15 15 14 14 14 14 14 14
18 16 16 15 16 16 16 16 17 18 17 17 17 17 18 18 18 18 18 18 18 18 17 17 17 17 16 16 16 16 16 16 16 16 16 15 15 15 15 15 15 15 15 14 14 14 14 14 14
18 16 15 15 16 16 16 16 16 17 17 17 17 17 17 18 18 18 18 18 18 18 18 17 17 17 16 16 16 16 16 16 16 16 16 15 15 15 15 15 15 15 15 14 14 14 14 14 14
17 17 15 14 15 15 16 16 17 16 16 16 16 17 18 18 18 18 18 18 18 18 18 17 17 17 16 16 16 16 16 16 16 16 16 15 15 15 15 15 15 15 15 14 14 14 14 14 14
18 17 15 16 15 14 15 16 17 16 17 17 17 18 18 18 18 18 18 18 18 18 18 17 17 17 17 17 16 16 16 16 16 16 16 15 15 15 15 15 15 15 15 14 14 14 14 14 14
Wind_Speed
2 3 3 4 5 5 3 3 2 2 3 3 4 6 6 4 3 3 2 1 3 2 1 3 5 6 6 6 8 8 9 9 9 9 10 10 10 10 10 9 9 10 10 10 10 10 9 9 9
2 2 4 5 5 4 2 2 2 2 4 4 5 5 5 4 3 3 0 1 3 2 2 3 5 6 6 7 7 8 8 9 9 9 9 9 10 10 9 9 9 10 10 9 9 9 9 9 9
1 3 4 4 4 3 2 1 3 3 4 2 4 5 4 3 3 3 2 3 3 3 3 3 5 6 7 7 7 8 8 8 8 8 9 9 9 9 9 9 9 9 9 9 9 9 9 9 9
3 4 5 5 5 1 1 2 3 4 4 5 4 4 4 2 3 4 4 4 3 2 2 2 5 5 6 7 7 7 7 7 7 7 8 8 8 8 8 9 9 9 9 9 9 9 9 9 9
4 4 6 4 4 3 2 1 2 3 3 4 4 4 3 4 3 5 5 4 3 1 1 2 4 5 5 6 7 7 7 7 7 7 8 8 8 8 9 9 9 8 8 8 9 9 9 9 9
4 5 5 3 3 3 2 2 3 4 4 3 4 4 2 2 3 4 4 3 2 1 1 1 3 4 5 5 6 6 6 6 6 6 7 7 7 7 8 8 9 9 8 8 9 9 9 9 10
4 5 4 3 2 2 1 2 3 4 3 2 3 4 1 1 1 3 4 3 2 2 2 2 3 4 5 5 5 5 5 5 5 6 6 6 6 6 7 7 7 8 8 8 9 9 10 10 10
4 5 4 2 2 1 1 2 3 4 3 3 3 5 3 3 3 5 4 4 3 2 2 2 3 4 4 4 4 4 4 5 5 5 5 6 6 6 6 6 6 7 8 9 10 10 10 10 10
4 5 2 1 3 1 1 3 3 3 5 3 2 2 3 6 6 6 4 3 2 0 1 1 1 2 3 3 4 5 5 6 6 6 6 6 7 6 5 6 7 7 8 9 10 10 11 11 11
5 4 1 2 3 3 2 3 3 4 4 3 4 4 6 7 7 5 4 2 1 2 1 1 0 1 2 3 4 5 5 6 6 5 5 5 6 6 6 7 8 9 9 10 11 11 11 11 10
4 4 1 1 2 4 3 3 2 5 2 2 4 5 6 6 5 4 3 3 3 3 2 2 1 0 1 2 3 4 4 5 5 5 4 5 6 7 8 8 8 9 10 10 10 11 10 10 9
4 2 2 1 2 3 4 4 3 2 2 3 5 7 6 6 5 4 3 3 2 2 2 2 2 1 1 2 2 3 3 4 4 4 4 4 4 5 5 6 6 7 7 7 8 8 9 10 10
3 2 2 3 4 4 5 4 3 1 1 5 6 6 6 5 3 2 2 2 2 2 2 2 2 2 2 2 2 3 3 3 3 4 3 4 4 3 4 4 5 6 6 6 6 7 7 7 8
2 3 3 3 4 3 5 3 3 0 4 6 6 5 4 4 3 2 2 3 3 3 2 2 3 3 3 2 2 2 3 3 3 3 3 4 4 3 4 4 4 5 6 7 7 6 6 6 7
3 5 5 4 3 2 5 3 0 2 6 6 4 3 2 2 3 3 4 3 3 3 3 3 3 3 3 3 2 3 3 4 4 3 4 4 4 4 4 4 3 4 6 8 8 7 7 6 6
5 5 3 3 2 2 4 1 3 3 6 5 4 3 2 1 2 3 3 3 3 4 4 3 3 4 4 3 3 3 4 5 4 4 4 5 5 6 6 4 3 5 6 6 5 4 5 6 5
4 2 1 3 1 2 2 3 2 3 6 4 3 3 2 1 2 2 2 3 4 4 4 4 4 4 4 4 4 5 5 5 4 4 4 4 5 6 6 4 4 6 6 4 4 4 4 5 5
1 0 0 2 2 2 1 3 2 2 5 4 3 2 1 2 4 2 2 3 4 4 4 4 4 4 4 4 4 3 4 4 5 4 4 5 5 6 7 5 5 5 4 4 4 5 4 4 4
2 2 0 3 1 2 2 2 2 3 3 3 3 3 3 4 2 0 2 3 4 4 4 4 4 3 3 3 2 2 2 2 2 4 5 5 5 6 6 5 5 4 4 4 4 4 5 3 2
2 2 1 3 2 1 1 3 2 2 4 4 5 5 5 3 1 1 2 3 4 4 4 4 4 3 3 2 2 2 2 1 1 3 5 5 5 4 4 5 4 4 4 4 4 3 3 2 2
1 2 2 1 3 4 3 5 3 2 1 2 3 4 4 5 4 3 4 3 4 3 4 4 3 3 3 3 3 3 3 3 3 3 2 4 4 4 5 5 5 4 3 3 2 3 3 2 2
2 3 3 2 3 2 2 3 5 3 2 2 4 4 4 4 4 4 5 5 5 4 3 3 3 3 3 3 4 4 3 2 0 0 1 3 5 4 5 5 5 4 3 3 2 2 2 3 1
2 1 3 3 3 2 3 1 6 3 3 4 5 6 5 5 5 5 6 6 5 4 3 3 3 3 3 3 4 4 3 1 1 1 2 3 3 4 4 4 4 4 3 2 2 2 2 2 2
3 5 6 5 4 2 2 2 5 3 4 5 4 5 6 6 5 4 4 4 3 3 3 3 3 2 2 3 4 4 4 3 2 2 2 1 1 2 3 4 4 3 3 2 2 2 3 2 2
5 6 4 5 4 3 2 1 6 5 4 4 4 4 5 5 5 5 5 5 5 5 4 4 4 3 2 3 3 4 4 4 4 3 2 2 1 1 0 2 3 2 2 3 4 3 2 2 2
2 6 5 2 2 4 3 3 5 4 4 2 1 2 3 4 5 6 6 6 5 5 5 5 4 3 3 3 3 3 4 3 2 2 2 3 2 1 1 2 3 3 3 4 4 3 2 2 2
4 2 5 5 1 1 4 5 6 4 5 4 2 2 2 3 5 6 5 5 6 6 6 6 5 4 3 3 3 3 3 3 3 3 2 2 2 2 2 3 3 3 3 3 4 2 2 2 2
4 6 5 4 2 2 5 4 4 5 4 3 1 1 2 3 3 5 5 5 5 5 5 5 5 5 4 3 3 3 3 3 3 3 3 3 2 2 3 3 3 3 2 3 3 2 2 3 1
3 3 4 4 4 4 2 5 4 4 4 3 3 3 3 3 4 5 5 5 4 4 4 4 5 4 4 4 3 3 3 3 3 3 3 3 3 3 3 3 4 3 2 2 3 2 2 2 2
4 4 5 4 2 3 3 5 4 3 3 3 3 2 1 2 2 3 4 4 3 4 4 5 5 5 5 4 4 3 3 3 3 3 3 3 3 3 3 4 4 3 3 3 3 2 2 2 1
Wind_Direction
31 80 78 57 53 52 45 4 14 45 58 46 58 73 83 73 81 120 258 154 137 119 92 100 99 91 88 84 81 77 75 75 75 73 73 72 71 74 75 79 81 82 81 79 76 75 77 77 79
88 86 57 59 76 68 17 355 48 59 127 130 69 69 73 68 80 115 204 190 136 129 101 103 102 92 88 84 83 81 79 78 78 77 73 72 69 69 73 79 80 81 79 79 77 73 72 72 73
87 59 77 68 81 118 133 55 101 79 92 87 64 54 72 87 120 154 207 161 125 112 97 112 103 91 86 85 87 85 81 79 79 77 74 72 70 66 70 76 80 79 77 75 74 73 73 70 70
77 46 55 65 65 34 148 145 132 110 58 51 80 62 51 37 155 165 153 132 125 111 102 105 101 90 84 84 84 88 83 82 78 77 78 73 70 63 71 72 73 74 74 70 68 69 70 70 70
62 72 60 53 36 15 32 96 88 85 67 50 78 82 39 355 100 128 136 133 133 130 107 110 104 93 86 85 85 84 81 78 78 78 79 75 69 66 72 69 68 68 72 72 70 70 71 69 69
52 64 76 70 35 19 33 42 81 79 85 78 83 89 42 359 115 136 135 132 130 120 74 71 97 92 87 88 84 81 79 78 78 75 74 71 66 65 64 63 63 64 69 72 72 72 73 72 69
91 80 90 101 66 33 52 66 87 97 91 89 107 96 63 352 141 124 112 99 84 53 50 36 35 43 57 67 73 75 73 72 72 71 69 69 64 59 61 62 64 65 68 71 72 74 73 75 72
111 93 70 61 92 36 24 84 86 96 94 89 95 124 172 210 127 96 84 73 65 52 40 32 27 28 30 27 46 62 65 68 67 62 57 55 48 44 50 49 60 68 71 72 73 73 72 74 73
85 74 95 170 151 149 88 93 62 65 87 63 65 139 166 130 111 97 83 59 47 94 348 5 16 15 20 16 32 37 42 49 49 45 44 45 40 37 39 46 59 67 71 71 73 71 70 71 68
77 101 173 208 169 145 110 103 113 83 72 65 62 63 94 111 117 119 128 147 188 216 243 252 325 353 7 19 32 30 36 42 44 43 45 47 47 46 48 50 55 60 66 67 68 70 67 65 59
92 135 167 84 136 130 115 93 91 113 104 174 155 142 121 116 120 134 157 185 204 204 214 217 195 358 24 19 24 27 34 38 41 43 47 56 58 54 54 50 48 52 60 60 61 62 61 61 58
90 58 115 117 112 110 118 113 94 111 197 177 152 146 136 137 151 168 181 202 193 174 205 201 157 116 52 47 34 36 40 40 43 41 49 66 63 58 55 53 51 56 62 66 65 66 65 63 59
71 51 48 76 70 90 96 96 111 65 92 107 119 129 144 154 164 178 185 177 152 160 179 174 140 123 90 71 52 60 55 57 52 50 60 80 82 74 68 62 60 62 69 74 73 72 69 66 60
91 74 60 51 54 63 102 82 87 151 113 111 122 144 164 169 175 166 163 156 153 160 165 151 134 125 107 91 77 61 60 65 64 59 72 90 99 96 88 76 70 66 72 80 80 78 74 68 66
74 62 34 25 50 72 95 36 340 170 126 124 138 161 171 175 174 186 189 168 166 157 150 147 138 114 108 100 81 67 60 69 63 59 76 91 101 105 101 89 80 76 84 85 81 75 72 69 65
54 54 25 329 47 91 104 269 272 151 137 150 164 173 172 197 201 204 182 157 146 135 136 144 138 123 115 99 84 70 67 69 62 65 78 90 105 112 103 93 85 90 88 87 83 73 74 66 62
38 54 341 322 350 98 124 241 271 150 150 173 183 186 179 221 246 227 182 161 145 138 134 127 116 115 110 98 86 75 70 63 55 63 70 87 105 111 106 98 94 97 90 82 88 73 83 82 72
231 183 303 280 294 107 149 253 282 162 157 181 185 188 185 212 243 240 176 156 136 127 121 116 105 98 99 90 78 66 57 47 48 54 65 87 99 107 106 99 95 98 92 83 87 87 76 83 81
149 135 275 278 270 132 217 267 278 184 173 190 205 209 214 232 253 118 137 138 130 124 122 123 120 115 111 95 92 84 63 22 30 42 59 77 90 104 105 102 96 97 99 107 109 104 88 71 69
117 99 337 326 4 122 274 301 282 202 203 201 203 214 215 226 264 154 141 137 141 144 137 133 135 136 137 129 120 115 111 80 48 39 50 59 79 98 112 109 107 104 105 99 100 106 101 68 48
37 174 211 239 16 36 32 337 327 300 237 208 209 209 209 208 211 192 174 170 158 163 165 158 154 145 137 129 105 82 64 51 37 29 26 33 66 88 103 114 112 109 115 122 119 121 120 113 45
270 252 194 144 83 338 33 319 307 304 302 250 228 214 210 216 209 192 184 182 185 189 174 151 142 137 136 133 129 128 124 119 158 110 51 46 55 68 92 108 111 106 108 118 133 128 120 126 113
220 53 90 88 109 38 21 87 300 335 308 272 240 223 217 210 203 198 194 191 189 174 159 150 136 135 136 138 143 136 130 137 106 78 73 55 45 57 76 97 104 104 105 114 111 107 108 121 136
116 66 55 50 67 21 299 149 293 283 269 286 252 223 214 205 199 196 193 175 169 154 144 143 139 144 146 147 151 153 155 151 133 119 103 67 36 36 55 86 96 102 100 105 109 109 107 106 108
69 79 32 11 18 284 289 182 259 276 266 251 249 227 209 195 189 186 182 179 176 168 166 162 158 166 167 160 165 170 170 169 172 169 156 137 83 21 359 99 101 100 103 104 100 95 87 95 102
118 125 144 184 240 289 327 258 267 304 308 284 231 186 173 181 190 194 193 189 187 182 175 172 176 185 182 176 184 180 172 171 180 175 169 168 180 198 156 121 114 107 107 105 99 94 92 91 93
115 119 151 132 141 312 301 302 316 3 17 25 60 108 174 196 199 200 195 191 191 188 187 185 183 190 195 193 187 186 184 180 183 182 173 172 182 166 132 122 118 108 104 106 105 96 97 103 95
117 135 96 107 129 293 308 307 292 312 320 333 347 238 232 214 206 204 201 199 195 192 187 177 178 190 195 191 189 183 185 188 185 172 177 182 177 152 136 128 124 117 111 107 106 100 94 98 79
87 90 101 111 141 152 280 285 250 252 251 254 259 246 224 216 213 207 202 201 194 180 178 181 182 185 187 187 185 173 179 175 166 172 185 182 170 156 154 152 146 140 129 118 115 113 109 101 73
159 157 142 144 200 167 183 269 292 264 248 228 250 264 259 232 233 214 198 189 185 186 187 187 188 188 192 184 175 179 173 160 160 177 188 174 170 168 166 156 150 152 145 138 138 139 129 126 114
Height
1513 1513 1513 1514 1518 1528 1532 1528 1524 1524 1524 1525 1525 1525 1527 1530 1533 1539 1536 1533 1533 1533 1533 1532 1532 1532 1532 1532 1532 1532 1532 1532 1531 1531 1531 1531 1531 1531 1531 1532 1532 1532 1532 1532 1533 1533 1534 1534 1534
1514 1514 1515 1515 1525 1538 1535 1527 1526 1525 1525 1526 1526 1527 1529 1531 1532 1534 1534 1534 1534 1534 1534 1533 1533 1533 1533 1533 1533 1533 1533 1533 1533 1533 1533 1533 1533 1533 1533 1533 1533 1533 1534 1534 1534 1534 1535 1535 1536
1514 1515 1516 1519 1529 1536 1533 1527 1526 1526 1526 1527 1528 1529 1531 1533 1534 1534 1535 1535 1535 1535 1535 1535 1535 1535 1535 1535 1534 1534 1534 1534 1534 1534 1534 1534 1534 1534 1534 1534 1535 1535 1535 1535 1535 1536 1536 1537 1537
1515 1517 1518 1525 1531 1530 1528 1527 1526 1526 1527 1528 1529 1531 1533 1535 1535 1536 1536 1536 1537 1537 1536 1536 1536 1536 1536 1536 1536 1536 1536 1536 1536 1535 1535 1535 1535 1535 1535 1536 1536 1536 1536 1536 1537 1537 1538 1538 1538
1516 1517 1525 1532 1531 1528 1526 1527 1527 1527 1529 1530 1530 1533 1535 1536 1537 1537 1538 1538 1538 1538 1538 1538 1538 1538 1538 1538 1538 1538 1538 1537 1537 1537 1537 1537 1537 1537 1536 1537 1537 1537 1537 1538 1538 1539 1539 1539 1539
1518 1519 1534 1538 1533 1529 1528 1528 1528 1529 1531 1532 1532 1534 1537 1538 1538 1539 1539 1540 1540 1540 1540 1540 1540 1540 1540 1540 1540 1540 1540 1539 1539 1539 1539 1539 1538 1538 1538 1538 1538 1539 1539 1539 1540 1540 1540 1540 1541
1520 1525 1534 1535 1535 1532 1530 1529 1530 1531 1532 1533 1534 1536 1537 1538 1539 1540 1541 1541 1542 1542 1542 1542 1542 1542 1542 1542 1542 1542 1542 1541 1541 1541 1541 1540 1540 1540 1540 1540 1540 1540 1540 1541 1541 1541 1541 1542 1542
1520 1526 1534 1535 1535 1534 1530 1531 1532 1532 1533 1535 1535 1536 1538 1539 1540 1541 1542 1543 1543 1544 1544 1544 1544 1544 1544 1544 1544 1544 1544 1543 1543 1543 1543 1542 1542 1542 1542 1541 1542 1541 1542 1542 1542 1542 1543 1543 1543
1521 1531 1537 1534 1534 1532 1530 1531 1533 1533 1534 1535 1535 1537 1538 1539 1540 1542 1543 1544 1545 1545 1545 1546 1546 1546 1546 1546 1546 1546 1545 1545 1545 1545 1545 1544 1544 1543 1543 1543 1543 1543 1543 1544 1544 1544 1544 1544 1544
1523 1534 1532 1529 1529 1530 1531 1532 1533 1534 1535 1536 1537 1538 1539 1540 1541 1542 1543 1544 1545 1546 1547 1547 1547 1547 1547 1547 1547 1547 1547 1547 1547 1547 1546 1546 1546 1545 1545 1545 1545 1545 1545 1545 1545 1545 1545 1545 1546
1524 1530 1528 1528 1528 1529 1531 1533 1534 1535 1537 1537 1537 1538 1540 1541 1542 1543 1544 1545 1546 1547 1548 1548 1549 1549 1549 1549 1549 1549 1549 1549 1549 1549 1548 1548 1548 1547 1547 1547 1547 1547 1547 1547 1547 1547 1547 1547 1547
1526 1528 1528 1528 1529 1530 1532 1533 1535 1536 1537 1537 1538 1539 1540 1542 1543 1544 1545 1546 1547 1548 1548 1549 1550 1550 1550 1550 1550 1550 1550 1550 1550 1550 1550 1550 1550 1549 1549 1549 1548 1548 1548 1549 1548 1548 1548 1548 1549
1528 1529 1529 1530 1530 1531 1533 1534 1535 1537 1537 1538 1539 1540 1541 1543 1544 1545 1546 1547 1548 1548 1549 1550 1551 1551 1551 1551 1552 1552 1552 1552 1552 1552 1552 1552 1552 1551 1551 1551 1551 1550 1550 1550 1550 1550 1550 1550 1550
1529 1530 1531 1531 1531 1533 1534 1536 1536 1537 1538 1539 1540 1541 1542 1543 1545 1546 1547 1547 1548 1549 1550 1551 1552 1552 1552 1553 1553 1553 1553 1553 1553 1553 1553 1553 1553 1553 1553 1552 1552 1552 1552 1552 1552 1552 1551 1551 1551
1530 1532 1533 1533 1533 1535 1536 1539 1538 1538 1539 1539 1541 1542 1543 1544 1545 1546 1547 1548 1549 1550 1551 1552 1552 1553 1553 1554 1554 1554 1554 1555 1555 1555 1555 1555 1555 1555 1554 1554 1554 1554 1554 1554 1553 1553 1553 1553 1553
1532 1538 1542 1536 1535 1536 1540 1545 1539 1538 1539 1540 1541 1542 1543 1545 1546 1547 1548 1549 1550 1550 1551 1552 1553 1553 1554 1554 1555 1555 1555 1556 1556 1556 1556 1556 1556 1556 1556 1556 1555 1555 1555 1555 1555 1555 1554 1554 1554
1540 1546 1545 1540 1536 1536 1539 1543 1538 1538 1539 1540 1541 1542 1544 1545 1546 1547 1548 1549 1550 1551 1552 1553 1553 1554 1555 1555 1556 1556 1556 1556 1557 1557 1557 1557 1557 1557 1557 1557 1557 1556 1556 1556 1556 1556 1556 1555 1555
1546 1546 1545 1544 1538 1538 1541 1541 1539 1539 1539 1540 1541 1543 1544 1545 1546 1547 1548 1549 1551 1552 1553 1553 1554 1555 1555 1556 1556 1557 1557 1557 1557 1558 1558 1558 1558 1558 1558 1558 1558 1558 1557 1557 1557 1557 1557 1557 1557
1539 1543 1546 1542 1537 1539 1541 1541 1539 1539 1539 1540 1541 1542 1543 1544 1545 1546 1548 1549 1550 1551 1552 1553 1554 1555 1556 1557 1557 1557 1557 1558 1558 1558 1559 1559 1559 1559 1559 1559 1559 1559 1559 1558 1558 1558 1558 1558 1558
1539 1544 1545 1541 1537 1539 1542 1542 1539 1538 1538 1539 1540 1541 1542 1543 1544 1546 1547 1548 1550 1551 1552 1553 1554 1555 1556 1557 1557 1558 1558 1558 1559 1559 1559 1560 1560 1560 1560 1560 1560 1560 1560 1560 1559 1559 1559 1559 1560
1540 1543 1544 1544 1541 1541 1543 1546 1541 1538 1538 1538 1539 1540 1541 1542 1543 1545 1546 1548 1549 1550 1552 1553 1554 1555 1556 1557 1558 1558 1558 1559 1559 1560 1560 1560 1561 1561 1561 1561 1561 1561 1561 1561 1560 1561 1560 1560 1561
1544 1537 1538 1541 1547 1553 1549 1560 1546 1541 1539 1537 1538 1538 1539 1540 1542 1544 1545 1547 1549 1550 1552 1553 1554 1555 1556 1557 1558 1558 1558 1559 1559 1560 1560 1561 1561 1561 1562 1562 1562 1562 1562 1562 1562 1562 1562 1562 1561
1538 1536 1538 1542 1547 1554 1554 1559 1553 1543 1541 1537 1536 1536 1538 1539 1541 1543 1544 1546 1548 1550 1552 1553 1554 1555 1556 1557 1558 1558 1559 1559 1560 1560 1561 1561 1562 1562 1562 1562 1562 1562 1562 1562 1562 1562 1562 1562 1562
1535 1539 1544 1550 1554 1564 1557 1560 1557 1546 1540 1536 1534 1534 1536 1538 1540 1542 1544 1546 1548 1550 1551 1553 1554 1555 1556 1557 1557 1558 1559 1559 1560 1561 1561 1562 1562 1562 1562 1562 1562 1563 1562 1562 1562 1563 1562 1562 1562
1538 1550 1564 1566 1571 1568 1556 1558 1554 1539 1535 1534 1533 1533 1534 1536 1538 1540 1542 1544 1546 1548 1550 1552 1553 1554 1555 1556 1557 1558 1559 1559 1560 1561 1562 1562 1563 1563 1563 1563 1563 1563 1563 1563 1563 1563 1563 1562 1562
1542 1548 1566 1573 1574 1569 1557 1558 1546 1535 1533 1532 1531 1532 1534 1536 1538 1539 1541 1543 1545 1547 1549 1551 1553 1554 1555 1556 1557 1558 1558 1559 1560 1561 1562 1562 1563 1563 1563 1563 1563 1563 1563 1563 1563 1563 1563 1563 1562
1543 1549 1550 1562 1565 1569 1562 1552 1541 1534 1532 1532 1531 1532 1533 1535 1537 1539 1541 1542 1544 1546 1548 1550 1551 1553 1554 1555 1556 1557 1558 1559 1560 1561 1561 1562 1563 1563 1563 1564 1563 1563 1563 1563 1563 1563 1563 1563 1562
1538 1544 1555 1562 1571 1574 1565 1559 1553 1540 1536 1533 1532 1532 1533 1535 1536 1538 1540 1541 1543 1545 1547 1549 1550 1552 1553 1555 1555 1556 1557 1558 1559 1560 1561 1562 1562 1563 1563 1563 1563 1563 1563 1563 1563 1563 1563 1563 1563
1543 1547 1553 1561 1563 1572 1573 1564 1541 1538 1535 1534 1533 1532 1532 1534 1535 1536 1538 1540 1542 1544 1545 1547 1549 1550 1552 1553 1554 1555 1556 1558 1558 1559 1560 1561 1562 1562 1563 1563 1563 1563 1563 1563 1563 1563 1563 1563 1562
1538 1543 1551 1560 1564 1566 1569 1562 1535 1534 1533 1532 1532 1532 1532 1534 1535 1535 1537 1539 1540 1542 1543 1545 1547 1548 1550 1552 1553 1554 1555 1556 1557 1558 1559 1560 1561 1561 1562 1562 1562 1563 1563 1563 1563 1563 1563 1562 1562